Station BGXN3 - Greenland, Great Bay Reserve, NH Image indicating link to RSS feed of recent meteorological observations for station BGXN3


Conditions at BGXN3 as of
(7:45 pm EDT)
2345 GMT on 04/15/2024:
     

Click on the graph icon in the table below to see a time series plot of the last five days of that observation.

5-day plot - Wind Direction Wind Direction (WDIR):WNW ( 300 deg true )
5-day plot - Wind Speed Wind Speed (WSPD): 4.1 kts
5-day plot - Atmospheric Pressure Atmospheric Pressure (PRES):29.88 in
5-day plot - Air Temperature Air Temperature (ATMP): 54.7 °F
5-day plot - Dew Point Dew Point (DEWP): 41.7 °F
5-day plot -  Wind Speed, Wind Gust and Atmospheric Pressure Combined plot of Wind Speed, Gust, and Air Pressure
Previous observations
TIME
(EDT)
5-day plot - Wind Direction
WDIR
 
5-day plot - Wind Speed
WSPD
kts
5-day plot - Wind Gust
GST
kts
5-day plot - Wave Height
WVHT
ft
5-day plot - Dominant Wave Period
DPD
sec
5-day plot - Average Wave Period
APD
sec
5-day plot - Mean Wave Direction
MWD
 
5-day plot - Atmospheric Pressure
PRES
in
5-day plot - Pressure Tendency
PTDY
in
5-day plot - Air Temperature
ATMP
°F
5-day plot - Water Temperature
WTMP
°F
5-day plot - Dew Point
DEWP
°F
5-day plot - Salinity
SAL
psu
5-day plot - Visibility
VIS
nmi
5-day plot - Tide (above MLLW)
TIDE
ft
2024-04-15 07:30 pm NW 1.9-----29.88- 55.4- 41.0---
2024-04-15 07:15 pm NW 2.9-----29.88- 56.1- 41.4---
2024-04-15 07:00 pm NW 4.1-----29.85+0.09 56.7- 41.4---
2024-04-15 06:45 pm NW 5.1-----29.85- 57.9- 41.5---
2024-04-15 06:30 pmWNW 6.0-----29.85- 58.6- 42.8---
2024-04-15 06:15 pmWNW 7.0-----29.85- 59.5- 42.6---
2024-04-15 06:00 pmWNW 6.0-----29.83+0.09 60.1- 42.1---
2024-04-15 05:45 pmWNW 7.0-----29.83- 60.8- 42.8---
2024-04-15 05:30 pmWNW 8.0-----29.83- 61.9- 42.3---
2024-04-15 05:15 pmWNW 6.0-----29.80- 63.1- 41.7---
2024-04-15 05:00 pmWNW 7.0-----29.80+0.03 64.0- 42.1---
2024-04-15 04:45 pmWNW 7.0-----29.80- 64.8- 42.6---
2024-04-15 04:30 pmWNW 8.9-----29.77- 66.2- 42.8---
2024-04-15 04:15 pm W 15.0-----29.77- 66.7- 40.6---
2024-04-15 04:00 pm W 15.0-----29.77+0.00 67.1- 40.3---
2024-04-15 03:45 pm W 14.0-----29.74- 68.4- 40.8---
2024-04-15 03:30 pm W 11.1-----29.74- 68.5- 43.0---
2024-04-15 03:15 pm W 8.9-----29.74- 67.1- 44.2---
2024-04-15 03:00 pm W 7.0-----29.74-0.03 67.5- 43.9---
2024-04-15 02:45 pm W 6.0-----29.74- 67.1- 43.0---
2024-04-15 02:30 pmWNW 5.1-----29.74- 66.6- 43.7---
2024-04-15 02:15 pm W 7.0-----29.74- 67.1- 44.2---
2024-04-15 02:00 pm W 7.0-----29.77+0.00 66.4- 46.4---
2024-04-15 01:45 pm W 7.0-----29.77- 66.0- 46.6---
2024-04-15 01:30 pm W 5.1-----29.77- 64.8- 45.5---
2024-04-15 01:15 pmWNW 5.1-----29.77- 64.8- 44.4---
2024-04-15 01:00 pm W 6.0-----29.77-0.03 63.9- 46.2---
2024-04-15 12:45 pm W 8.0-----29.77- 64.4- 44.6---
2024-04-15 12:30 pm W 6.0-----29.77- 64.0- 44.8---
2024-04-15 12:15 pm W 6.0-----29.77- 64.2- 45.0---
2024-04-15 12:00 pm W 6.0-----29.77-0.03 63.7- 45.5---
2024-04-15 11:45 am W 7.0-----29.77- 62.2- 45.1---
2024-04-15 11:30 am W 5.1-----29.77- 60.8- 45.7---
2024-04-15 11:15 am W 5.1-----29.77- 60.6- 45.5---
2024-04-15 11:00 am W 2.9-----29.77+0.00 59.4- 45.7---
2024-04-15 10:45 amWNW 2.9-----29.80- 57.7- 45.3---
2024-04-15 10:30 am W 2.9-----29.77- 57.2- 45.7---
2024-04-15 10:15 amWNW 2.9-----29.77- 55.6- 45.0---
2024-04-15 10:00 am W 2.9-----29.80+0.03 54.3- 45.3---
2024-04-15 09:45 am W 1.9-----29.80- 53.2- 44.6---
2024-04-15 09:30 amWNW 1.9-----29.80- 52.2- 44.6---
2024-04-15 09:15 amWNW 1.9-----29.80- 49.5- 43.9---
2024-04-15 09:00 am W 1.9-----29.80+0.06 49.5- 44.6---
2024-04-15 08:45 am W 2.9-----29.77- 48.2- 44.2---
2024-04-15 08:30 amWNW 1.9-----29.77- 46.9- 43.9---
2024-04-15 08:15 amWNW 1.9-----29.77- 46.0- 43.3---
2024-04-15 08:00 amWNW 1.9-----29.77+0.06 45.3- 43.7---
2024-04-15 07:45 amWNW 1.9-----29.77- 44.1- 43.3---
2024-04-15 07:30 am W 1.9-----29.77- 43.5- 43.0---
2024-04-15 07:15 amWNW 1.9-----29.77- 42.4- 42.3---
2024-04-15 07:00 am W 1.0-----29.77+0.06 39.6- 39.4---
2024-04-15 06:45 am- 0.0-----29.74- 37.2- 36.7---
2024-04-15 06:30 am- 0.0-----29.74- 36.9- 36.3---
2024-04-15 06:15 am- 0.0-----29.74- 36.9- 36.3---
2024-04-15 06:00 am- 0.0-----29.74+0.06 36.7- 36.1---
2024-04-15 05:45 am- 0.0-----29.74- 37.0- 36.5---
2024-04-15 05:30 am- 0.0-----29.74- 37.6- 37.0---
2024-04-15 05:15 am E 1.0-----29.71- 37.8- 37.2---
2024-04-15 05:00 am- 0.0-----29.71+0.03 37.8- 37.0---
2024-04-15 04:45 am- 0.0-----29.71- 38.7- 38.1---
2024-04-15 04:30 am- 0.0-----29.71- 39.0- 38.5---
2024-04-15 04:15 am- 0.0-----29.71- 39.6- 39.0---
2024-04-15 04:00 am- 0.0-----29.71+0.00 39.4- 38.7---
2024-04-15 03:45 am- 0.0-----29.68- 39.7- 39.0---
2024-04-15 03:30 am- 0.0-----29.68- 40.1- 39.4---
2024-04-15 03:15 am- 0.0-----29.68- 40.5- 39.7---
2024-04-15 03:00 amWSW 1.0-----29.68-0.03 40.5- 39.4---
2024-04-15 02:45 am- 0.0-----29.68- 40.8- 39.7---
2024-04-15 02:30 am- 0.0-----29.68- 41.2- 40.1---
2024-04-15 02:15 am- 0.0-----29.68- 41.4- 40.1---
2024-04-15 02:00 am- 0.0-----29.68-0.03 41.7- 40.5---
2024-04-15 01:45 am- 0.0-----29.68- 41.7- 40.1---
2024-04-15 01:30 am- 0.0-----29.68- 42.1- 40.5---
2024-04-15 01:15 amENE 1.0-----29.68- 42.6- 40.8---
2024-04-15 01:00 am- 0.0-----29.71-0.03 43.3- 41.2---
2024-04-15 12:45 am- 0.0-----29.71- 44.1- 41.4---
2024-04-15 12:30 amESE 1.0-----29.71- 45.1- 42.1---
2024-04-15 12:15 am- 0.0-----29.71- 46.0- 42.4---
2024-04-15 12:00 amENE 1.0-----29.71-0.03 47.5- 43.0---
2024-04-14 11:45 pmESE 1.0-----29.71- 48.4- 43.2---
2024-04-14 11:30 pm- 0.0-----29.71- 48.7- 43.9---
2024-04-14 11:15 pmNNE 1.9-----29.71- 49.1- 43.9---
2024-04-14 11:00 pm NE 1.9-----29.71-0.03 48.9- 43.3---
2024-04-14 10:45 pmESE 1.0-----29.71- 48.4- 44.1---
2024-04-14 10:30 pm- 0.0-----29.74- 47.8- 44.2---
2024-04-14 10:15 pm- 0.0-----29.74- 47.3- 43.7---
2024-04-14 10:00 pm- 0.0-----29.74+0.00 47.8- 43.5---
2024-04-14 09:45 pm- 0.0-----29.71- 48.4- 44.1---
2024-04-14 09:30 pm- 0.0-----29.74- 48.7- 44.4---
2024-04-14 09:15 pm- 0.0-----29.71- 49.3- 44.8---
2024-04-14 09:00 pm- 0.0-----29.74+0.00 49.3- 44.1---